Location: Kailua
(21.4020°N, 157.7390°W)
Time: 13:36:24
(UTC-10:00)

Daily predictions for brighter satellites

Satellite Brightness Start Highest point End
(mag) Time Altitude Azimuth Time Altitude Azimuth Time Altitude Azimuth
USA 215 4.1 18:41:17 10° NNE 18:47:34 52° NW 18:53:49 10° WSW
Cosmos 2360 Rocket 3.2 18:42:47 10° NNW 18:48:13 52° WSW 18:53:38 10° S
CZ-4 R/B 2.6 18:46:49 10° S 18:50:52 50° W 18:54:50 10° NNW
Cosmos 1782 4.1 18:47:58 10° NNW 18:51:47 47° W 18:55:35 10° SSW
Cosmos 2082 3.7 18:46:42 10° S 18:52:13 62° ESE 18:57:45 10° NNE
Cosmos 2333 Rocket 3.0 18:48:03 10° N 18:52:53 29° ENE 18:57:42 10° SE
OAO 2 Rocket 3.4 18:51:42 10° WSW 18:56:39 78° NNW 19:01:34 10° ENE
EO 1 Del DPAF 3.4 18:54:04 10° N 18:57:52 80° WNW 19:01:41 10° SSW
Cosmos 2285 Rocket 4.5 18:51:48 10° SSW 18:58:02 67° WNW 19:04:21 10° N
ISS -0.8 18:56:04 10° WNW 18:58:32 20° SW 19:01:00 10° S
COSMOS 2428 2.7 18:53:28 10° NNW 18:59:10 69° ENE 19:04:49 10° SSE
MOS 1 4.2 19:00:29 10° SSE 19:06:05 75° ENE 19:11:44 10° N
Cosmos 1238 4.1 19:05:57 10° S 19:08:55 62° E 19:12:00 10° NNE
Cosmos 1633 3.5 19:06:02 10° SSE 19:08:59 25° E 19:11:58 10° NE
Geosat 4.2 19:04:37 10° NE 19:09:28 50° ESE 19:14:19 10° S
GPS 2-18 Rocket1 3.7 19:05:45 10° W 19:09:44 55° S 19:13:30 11° ESE
Meteor 1-27 Rocket 3.9 19:06:48 10° N 19:12:42 89° E 19:18:38 10° S
IUS-18 SRM-1 2.8 19:10:50 10° NW 19:12:48 27° NNE 19:14:47 16° ENE
Cosmos 1624 Rocket 4.3 19:12:39 10° N 19:17:32 41° ENE 19:22:24 10° SE
GPS 2-12 Rocket1 3.7 19:13:35 10° WSW 19:18:13 48° SSE 19:21:39 17° E
Cosmos 158 Rocket 4.0 19:14:16 10° S 19:19:05 52° ESE 19:23:49 10° NNE
FUSE 4.1 19:15:20 10° WNW 19:20:34 60° N 19:24:18 19° E
CENTAUR R/B 2.3 19:15:26 10° SSW 19:21:00 69° ESE 19:27:11 10° NNE
Cosmos 1980 4.3 19:17:51 10° N 19:22:56 33° ENE 19:28:00 10° SE
FREGAT/IRIS 3.1 19:20:19 10° SE 19:23:02 35° ENE 19:25:45 10° N
Iridium 4 Rocket 3.9 19:25:26 10° NNE 19:29:33 29° E 19:33:23 10° SE
Cosmos 1908 Rocket 3.7 19:25:22 10° SSE 19:29:40 50° E 19:34:00 10° NNE
Meteor 1-14 Rocket 4.2 19:25:27 10° S 19:31:04 78° E 19:36:51 10° N
CZ-3A R/B 3.4 19:26:35 10° WSW 19:31:17 88° SSE 19:48:12 21° ENE
Cosmos 468 4.4 19:27:18 10° S 19:32:32 68° ESE 19:37:46 10° NNE
USA 32 4.4 19:28:33 10° SSE 19:33:25 40° E 19:38:17 10° NNE
Thor Agena Rocket 3.4 19:29:09 10° NNE 19:34:13 74° ESE 19:39:14 10° S
Cosmos 1674 Rocket 3.7 19:31:19 10° N 19:35:28 44° E 19:39:34 10° SSE
HJ-1C 3.8 19:33:27 10° SSE 19:36:39 39° ENE 19:39:52 10° N
GOES 2 Rocket 4.3 19:28:56 10° WNW 19:37:31 87° SSW 19:42:00 22° ESE
H-2A R/B 3.0 19:34:31 10° S 19:38:24 74° W 19:42:19 10° NNW
Cosmos 1269 Rocket 4.4 19:35:23 10° S 19:40:17 40° E 19:43:07 22° NE
Envisat 3.6 19:41:00 24° ESE 19:43:01 33° ENE 19:47:30 10° NNE
GPS 2-04 Rocket1 3.1 19:46:54 10° NW 19:50:09 39° NNE 19:50:09 39° NNE
OE (NEXTSAT) 4.2 19:48:19 10° SW 19:51:50 72° SE 19:51:59 71° ESE
Lacrosse 5 3.2 19:51:55 10° N 19:54:44 23° NNE 19:54:44 23° NNE
Cosmos 2219 Rocket 3.1 19:52:56 10° NNW 19:58:22 49° WSW 20:03:44 10° S
SeaSat 1 2.5 20:02:40 51° ENE 20:02:40 51° ENE 20:07:22 10° N
DELTA 2 R/B (1) 3.6 19:58:55 10° NW 20:04:23 58° NNE 20:05:10 53° ENE
CRYOSAT 2 4.2 20:00:56 10° N 20:05:48 84° E 20:10:39 10° S
Tsikada Rocket 3.9 20:01:33 10° S 20:07:50 67° E 20:14:12 10° NNE
Cosmos 2237 Rocket 2.1 20:02:45 10° NNW 20:08:23 89° ENE 20:14:00 10° SSE
Meteor 1-18 Rocket 4.0 20:03:52 10° N 20:09:23 65° E 20:14:51 10° SSE
SL-16 R/B 4.0 20:04:33 10° N 20:05:58 16° NNE 20:05:58 16° NNE
Cosmos 1437 Rocket 3.4 20:05:44 10° S 20:08:33 46° S 20:08:33 46° S
GPS 2-14 Rocket1 2.9 20:05:57 10° W 20:09:51 71° SW 20:09:51 71° SW
Cosmos 1812 3.3 20:06:42 10° NNW 20:10:30 56° W 20:14:17 10° S
Sich 1 Rocket 4.1 20:06:13 10° SSW 20:10:42 62° W 20:15:11 10° N
Cosmos 1513 Rocket 4.3 20:05:22 10° N 20:11:40 72° E 20:17:51 10° S
Okean 3 3.7 20:10:48 10° NNW 20:14:55 64° W 20:19:03 10° S
ERS-2 4.4 20:15:22 10° SSW 20:18:26 25° W 20:21:31 10° NW
Gbstr 26 Del rocket 3.9 20:17:52 10° SW 20:20:16 37° SW 20:20:16 37° SW
CZ-3C R/B 2.2 20:19:22 10° WSW 20:23:17 79° S 20:25:49 50° E
PSLV R/B 4.5 20:14:08 10° WSW 20:26:26 53° S 20:26:35 52° S
Cosmos 1782 Rocket 4.3 20:22:28 10° SSW 20:26:49 52° W 20:27:39 45° NW
ATLAS 2A CENTAUR R/B 2.7 20:20:04 10° WNW 20:28:21 43° SW 20:28:51 42° SSW
Cosmos 2333 Rocket 4.4 20:32:30 10° NW 20:36:52 23° WSW 20:41:15 10° SSW
